CAPE
5 6 7 8 3 2 1 0 0 0 1 0 0 0 0 0 1 0 0 0 0 0 0 0 0 0 0 0 0 0 0 0 0 0 0 0 0 0 0 0 0 0 0 0 0
8 8 6 4 9 9 3 0 0 0 0 0 0 1 0 0 0 0 0 0 0 0 0 0 0 0 0 0 0 0 0 0 0 0 0 0 0 0 0 0 0 0 16 0 141
18 16 15 9 8 7 8 2 0 0 0 0 0 3 0 0 0 0 0 0 0 0 0 0 0 0 0 0 0 0 0 0 0 0 0 0 0 0 0 0 0 0 0 72 138
13 15 10 6 4 5 11 0 0 0 0 0 0 0 0 0 0 0 0 0 0 0 0 0 0 0 0 0 0 0 0 0 0 0 0 0 0 0 0 0 0 0 0 86 99
11 11 6 4 6 8 10 0 0 0 0 0 0 1 0 0 0 0 0 0 0 0 0 0 0 0 0 0 0 0 0 0 0 0 0 0 0 0 0 0 0 0 0 90 138
22 13 11 12 3 12 24 2 1 0 0 0 0 2 0 0 0 0 0 0 0 0 0 0 0 0 0 0 0 0 0 0 0 0 0 0 0 0 0 0 0 0 0 0 62
14 23 18 8 0 0 13 3 0 0 0 0 1 0 2 0 0 0 0 0 0 0 0 0 0 0 0 0 0 0 0 0 0 0 0 0 0 0 0 0 0 0 0 0 0
3 24 30 16 7 0 2 0 0 0 0 0 0 1 0 0 0 0 0 0 0 0 0 0 0 0 0 0 0 0 0 0 0 0 0 0 0 0 0 0 0 0 0 0 0
9 22 31 23 18 0 0 0 0 0 0 0 0 0 0 0 0 0 0 0 0 0 0 0 0 0 0 0 0 0 0 0 0 0 0 0 0 0 0 0 0 0 0 0 0
15 17 29 32 14 0 0 0 0 0 0 0 0 0 0 0 0 0 0 0 0 0 0 0 0 0 0 0 0 0 0 0 0 0 0 0 0 0 0 0 0 0 0 0 0
5 10 14 28 0 0 0 0 0 0 0 0 0 0 0 0 0 0 0 0 0 0 0 0 0 0 0 0 0 0 0 0 0 0 0 0 0 0 0 0 0 0 0 0 0
8 8 11 8 0 0 0 0 0 0 1 0 0 0 0 0 0 0 0 0 0 0 0 0 0 0 0 0 0 0 0 0 0 0 0 0 0 0 0 0 0 0 0 0 0
7 10 15 9 0 0 0 0 0 0 12 0 0 0 0 0 0 0 0 0 0 0 0 0 0 0 0 0 0 0 0 0 0 0 0 0 0 0 0 0 0 0 0 0 0
4 5 11 22 0 0 0 0 0 0 27 0 0 0 0 0 0 0 0 0 0 0 0 0 0 0 0 0 0 0 0 0 0 0 0 0 0 0 0 0 0 0 0 0 0
8 3 4 14 14 0 0 0 0 41 2 0 0 0 0 0 0 0 0 0 0 0 0 0 0 0 0 0 0 0 0 0 0 0 0 0 0 0 0 0 0 0 0 0 0
11 8 15 0 0 0 0 0 0 25 2 0 0 0 0 0 0 0 0 0 0 0 0 0 0 0 0 0 0 0 0 0 0 0 0 0 0 0 0 0 0 0 0 0 0
9 10 9 2 0 0 0 0 7 14 0 0 0 0 0 0 0 0 0 0 0 0 0 0 0 0 0 0 0 0 0 0 0 0 0 0 0 0 0 0 0 0 0 0 0
11 2 0 0 0 0 0 46 1 0 0 0 0 0 16 0 0 0 0 0 0 0 0 0 0 0 0 0 0 0 0 0 0 0 0 0 0 0 0 0 0 0 0 0 0
8 0 0 0 0 0 6 0 0 9 19 1 0 37 1 0 0 0 8 1 0 0 0 0 0 0 0 0 0 0 0 0 0 0 0 0 0 0 0 0 0 0 0 0 18
5 0 0 0 0 0 18 2 0 21 3 12 3 2 0 1 0 0 21 1 0 0 0 0 0 0 0 0 0 0 0 0 0 0 0 0 0 0 0 0 14 3 0 0 0
0 0 0 0 0 16 1 0 0 0 1 1 4 0 1 0 1 0 6 2 0 0 0 0 0 0 13 0 0 0 0 0 0 0 0 0 0 0 0 15 8 5 0 0 0
0 0 0 0 0 0 0 2 0 0 0 14 0 0 1 1 0 0 21 14 46 26 0 0 0 0 0 13 0 0 0 0 0 0 0 0 0 0 0 6 0 0 0 0 0
0 2 0 0 0 0 3 0 1 0 2 4 2 3 0 1 1 0 10 22 20 25 5 0 0 0 15 2 0 0 0 0 0 0 0 0 0 2 1 0 0 0 0 0 0
0 0 0 23 5 0 5 0 0 0 0 8 14 14 1 0 1 0 0 1 0 0 0 0 0 2 0 0 0 0 0 0 0 0 0 0 23 49 29 5 0 0 0 0 0
0 0 0 0 0 1 2 0 4 10 5 10 4 4 1 0 0 3 7 1 0 39 0 0 0 0 0 0 1 0 0 0 0 0 0 0 0 5 49 1 4 0 0 1 0
1 6 43 0 0 0 0 0 0 0 4 13 6 0 0 1 22 19 2 0 0 0 1 0 3 2 11 6 0 0 0 0 0 0 0 0 0 0 0 0 0 7 19 0 0
0 8 5 0 0 0 0 0 0 1 1 16 2 0 0 0 8 0 0 0 0 0 0 0 2 12 0 16 0 0 0 0 0 0 0 0 2 8 2 0 0 0 0 0 0
CIN
0 0 0 0 0 0 0 0 0 0 0 0 0 0 0 0 0 0 0 0 0 0 0 0 0 0 0 0 0 0 0 0 0 0 0 0 0 0 0 0 0 0 0 0 0
0 0 0 0 0 0 0 0 0 0 0 0 0 0 0 0 0 0 0 0 0 0 0 0 0 0 0 0 0 0 0 0 0 0 0 0 0 0 0 0 0 0 -179 0 -504
0 0 0 0 0 0 0 0 0 0 0 0 0 0 0 0 0 0 0 0 0 0 0 0 0 0 0 0 0 0 0 0 0 0 0 0 0 0 0 0 0 0 0 -372 -438
0 0 0 0 0 0 0 0 0 0 0 0 0 0 0 0 0 0 0 0 0 0 0 0 0 0 0 0 0 0 0 0 0 0 0 0 0 0 0 0 0 0 0 -353 -381
0 0 0 0 0 0 0 0 0 0 0 0 0 0 0 0 0 0 0 0 0 0 0 0 0 0 0 0 0 0 0 0 0 0 0 0 0 0 0 0 0 0 0 -291 -326
0 0 0 0 0 0 0 0 0 0 0 0 0 0 0 0 0 0 0 0 0 0 0 0 0 0 0 0 0 0 0 0 0 0 0 0 0 0 0 0 0 0 0 0 -333
0 0 0 0 0 0 0 0 0 0 0 0 0 0 0 0 0 0 0 0 0 0 0 0 0 0 0 0 0 0 0 0 0 0 0 0 0 0 0 0 0 0 0 0 0
0 0 0 0 0 0 0 0 0 0 0 0 0 0 0 0 0 0 0 0 0 0 0 0 0 0 0 0 0 0 0 0 0 0 0 0 0 0 0 0 0 0 0 0 0
0 0 0 0 0 0 0 0 0 0 0 0 0 0 0 0 0 0 0 0 0 0 0 0 0 0 0 0 0 0 0 0 0 0 0 0 0 0 0 0 0 0 0 0 0
0 0 0 0 -1 0 0 0 0 0 0 0 0 0 0 0 0 0 0 0 0 0 0 0 0 0 0 0 0 0 0 0 0 0 0 0 0 0 0 0 0 0 0 0 0
0 0 0 0 0 0 0 0 0 0 0 0 0 0 0 0 0 0 0 0 0 0 0 0 0 0 0 0 0 0 0 0 0 0 0 0 0 0 0 0 0 0 0 0 0
0 0 0 0 0 0 0 0 0 0 0 0 0 0 0 0 0 0 0 0 0 0 0 0 0 0 0 0 0 0 0 0 0 0 0 0 0 0 0 0 0 0 0 0 0
0 0 0 0 0 0 0 0 0 0 -3 0 0 0 0 0 0 0 0 0 0 0 0 0 0 0 0 0 0 0 0 0 0 0 0 0 0 0 0 0 0 0 0 0 0
0 0 0 0 0 0 0 0 0 0 -2 0 0 0 0 0 0 0 0 0 0 0 0 0 0 0 0 0 0 0 0 0 0 0 0 0 0 0 0 0 0 0 0 0 0
0 0 0 0 -2 0 0 0 0 -56 0 0 0 0 0 0 0 0 0 0 0 0 0 0 0 0 0 0 0 0 0 0 0 0 0 0 0 0 0 0 0 0 0 0 0
0 0 0 -2 0 0 0 0 0 -1 0 0 0 0 0 0 0 0 0 0 0 0 0 0 0 0 0 0 0 0 0 0 0 0 0 0 0 0 0 0 0 0 0 0 0
0 0 -1 -2 0 0 0 0 -2 0 0 0 0 0 0 0 0 0 0 0 0 0 0 0 0 0 0 0 0 0 0 0 0 0 0 0 0 0 0 0 0 0 0 0 0
0 0 0 0 0 0 0 0 0 0 0 0 0 0 -11 0 -13 -8 0 0 0 0 0 0 0 0 0 0 0 0 0 0 0 0 0 0 0 0 0 0 0 0 0 0 0
-1 0 0 0 0 0 -1 0 0 -3 -6 -2 0 -25 -7 0 0 0 -114 -3 0 0 0 0 0 0 0 0 0 0 0 0 0 0 0 0 0 0 0 -6 0 0 0 0 -364
-5 0 0 0 0 0 0 -1 -2 -7 -1 -1 -1 -9 0 0 0 0 -54 0 0 0 0 0 0 0 0 0 0 0 0 0 0 0 0 0 0 0 0 0 -69 -105 0 0 0
0 0 0 0 0 -2 -1 -1 0 0 -5 0 -1 0 0 0 0 0 -4 -1 -1 0 0 0 0 0 -31 0 0 0 0 0 0 0 0 0 0 0 0 -106 -105 -135 0 0 0
-2 0 0 0 0 0 0 -4 0 0 0 -9 -1 0 0 0 0 0 0 0 -5 -17 0 0 0 0 -1 -50 0 0 0 0 -1 0 0 0 0 0 0 -150 0 0 0 0 0
-1 -2 0 0 0 0 -2 0 0 0 -18 -3 -2 -19 0 -1 0 0 0 -1 -26 -61 -42 0 0 0 -62 -6 0 0 0 -10 0 0 0 -10 0 -40 -44 0 0 0 -20 0 0
0 -1 0 -5 -1 -2 -2 0 0 0 0 -12 -17 -23 -43 0 -5 0 0 -3 0 0 0 0 0 0 0 0 0 0 0 0 0 0 0 0 -67 -119 -110 -26 0 0 0 0 0
-3 -5 0 0 0 -5 -14 0 -1 0 -4 -22 -26 -21 -10 0 0 -25 -33 -40 -38 -42 0 0 0 0 0 0 -5 0 0 0 0 0 -11 0 0 -79 -79 -52 -88 0 0 -73 0
-3 -5 0 0 0 0 0 0 0 0 -1 -3 0 0 0 -18 -8 -6 -25 0 0 0 -36 -1 0 0 -11 -48 0 -11 0 0 0 0 0 0 0 0 -3 0 0 -86 -23 0 0
-3 -17 -3 0 0 0 0 0 0 -1 -13 -8 -3 0 0 0 -25 0 0 0 0 0 0 -4 -55 -1 0 -49 0 -8 0 0 0 0 -7 0 -27 -112 -102 -50 0 0 0 0 0
Wind_Speed
14 15 16 17 17 18 19 20 20 23 23 24 24 25 25 25 27 4 8 13 10 5 8 6 4 5 2 2 4 5 2 5 7 7 7 3 6 3 5 4 4 2 6 5 11
14 16 17 18 18 18 19 20 20 22 22 23 25 24 24 24 9 11 14 6 12 6 5 7 6 7 4 5 3 5 6 10 8 6 5 5 2 9 4 10 5 4 0 3 12
16 16 18 19 20 20 20 20 20 22 23 23 23 23 23 19 6 7 7 7 10 9 3 4 3 5 5 5 6 7 9 10 6 6 6 7 6 5 4 14 10 8 4 5 5
15 17 18 21 21 22 20 21 22 24 24 24 24 23 23 4 7 2 8 5 4 7 2 4 3 5 5 7 7 6 7 16 8 7 5 10 5 5 7 18 13 12 6 10 11
15 17 19 20 24 23 22 23 23 24 24 23 21 19 8 3 15 8 9 4 2 4 5 5 6 6 7 5 5 7 5 9 8 9 9 10 13 13 17 12 13 10 7 13 15
14 15 17 19 22 23 23 24 25 24 25 23 19 15 1 7 5 4 5 7 4 2 4 7 7 8 4 8 10 4 10 15 11 14 10 13 15 6 15 6 11 9 10 12 17
16 15 16 19 22 23 24 25 27 27 26 24 17 5 7 24 5 13 13 8 3 7 6 5 6 3 2 5 6 5 6 8 7 7 9 7 8 11 15 4 11 12 11 10 17
16 16 16 18 20 22 24 27 30 31 27 18 7 6 11 7 6 13 4 9 9 9 9 9 7 5 4 6 5 4 2 3 5 9 7 9 22 7 9 5 10 11 11 13 11
15 16 17 19 21 23 25 29 34 23 13 5 5 4 13 8 5 10 9 7 1 7 7 8 4 7 3 3 3 4 7 5 5 6 4 8 9 5 7 3 9 10 11 15 8
16 17 18 19 22 24 26 33 23 9 3 5 4 2 6 4 5 15 5 4 4 2 3 5 4 5 2 5 15 10 6 5 8 5 6 11 16 8 11 4 9 9 12 10 7
17 18 19 19 21 26 19 7 9 7 6 8 14 10 20 11 9 4 7 12 4 3 6 4 4 15 16 12 11 9 7 8 0 5 4 8 13 11 9 11 9 10 9 9 7
17 18 18 20 23 23 5 5 9 9 16 13 21 25 27 8 16 26 4 7 4 7 4 3 17 7 9 10 8 8 14 14 5 5 5 14 25 18 7 8 9 9 10 8 4
17 17 17 18 21 5 2 3 8 12 8 14 15 16 9 18 18 31 9 7 8 6 8 13 8 14 15 11 13 11 16 5 12 4 7 7 21 17 10 7 7 9 10 6 11
15 16 17 18 6 5 5 10 12 7 5 11 6 10 5 6 12 6 17 12 8 22 12 13 15 15 7 16 10 17 8 11 9 4 6 7 14 8 6 12 8 12 10 9 11
14 15 16 12 4 3 7 10 13 1 7 7 5 4 4 9 8 3 0 10 27 9 10 17 8 15 21 22 13 10 9 10 9 6 3 13 6 4 1 6 12 15 10 8 12
13 13 13 3 0 6 6 8 3 3 11 9 5 13 9 8 13 2 4 6 4 6 6 17 1 6 7 9 17 4 4 2 1 3 9 8 8 6 5 7 6 9 11 10 9
14 14 12 3 4 0 6 4 2 8 11 8 10 23 22 16 12 7 4 7 6 6 11 7 12 2 1 3 3 5 7 2 2 3 8 9 8 12 7 9 4 15 18 15 9
14 16 5 6 2 4 3 1 4 7 11 21 23 27 8 17 11 16 4 4 6 4 3 9 8 12 5 16 6 7 8 6 7 4 3 4 7 6 6 2 5 15 20 12 7
12 3 3 5 2 4 3 1 5 6 4 13 21 10 6 15 9 10 6 10 4 7 4 5 6 4 6 15 17 13 6 15 6 1 1 5 5 7 3 6 7 13 16 21 5
3 4 4 3 6 4 2 6 5 7 14 17 16 9 15 16 12 15 8 11 8 6 5 4 4 5 3 6 9 13 6 5 3 10 14 4 4 6 5 6 3 8 17 19 17
3 4 4 2 3 1 3 5 5 10 14 8 13 17 15 10 7 12 4 6 14 10 5 7 1 5 2 4 7 4 6 5 6 6 9 6 6 6 7 3 1 13 14 15 18
0 2 3 2 3 2 3 4 4 9 9 14 6 8 10 15 6 8 6 4 5 7 3 4 1 3 6 4 1 3 8 14 5 5 3 5 6 8 4 4 8 8 8 14 16
0 2 3 3 2 2 5 6 11 13 6 5 6 6 18 13 3 7 9 9 3 2 4 4 4 4 5 3 4 4 5 2 4 3 6 7 4 3 9 9 8 4 1 8 14
2 3 4 1 1 2 4 5 5 9 12 5 7 6 8 4 2 5 5 8 10 4 1 5 4 4 2 9 1 4 4 5 5 4 1 4 6 6 5 7 9 7 7 2 10
2 2 3 3 3 4 3 5 9 10 6 5 6 11 4 4 4 4 4 6 7 7 1 3 6 7 17 11 4 4 8 5 6 4 4 5 7 3 5 8 9 6 8 5 9
3 2 1 3 3 3 3 4 7 14 4 5 8 14 9 4 3 3 2 2 2 7 2 3 5 4 16 9 4 4 5 4 2 2 3 11 10 5 6 10 12 13 9 10 10
2 0 2 4 2 1 3 3 8 12 8 6 12 10 7 5 7 10 10 5 3 2 5 3 4 3 6 10 10 1 3 4 6 7 5 9 5 9 11 12 8 7 10 10 6
Wind_Direction
349 348 345 345 345 343 341 340 337 339 339 339 339 334 330 327 322 290 244 228 187 232 161 118 108 145 107 199 165 131 109 231 226 177 239 297 13 320 303 260 310 256 152 244 132
344 342 341 341 338 338 336 333 331 332 333 336 337 333 327 329 310 269 252 239 223 160 146 171 171 144 161 195 206 157 171 233 201 206 256 281 335 299 341 301 284 294 165 95 140
343 343 341 338 334 333 331 326 324 328 329 332 333 333 326 329 303 252 15 216 207 198 231 203 166 159 201 167 200 200 214 229 245 225 263 273 298 254 252 278 234 261 223 172 167
349 347 344 340 335 334 326 320 320 323 324 328 330 332 324 311 292 11 42 65 193 153 229 184 151 176 214 206 211 238 220 236 269 251 263 265 266 272 217 261 260 247 211 174 190
341 340 338 338 332 328 324 317 314 313 313 319 323 329 344 334 249 290 352 21 132 146 206 194 171 182 201 223 207 218 220 256 242 263 256 269 264 257 263 259 265 266 202 199 198
338 339 339 337 335 329 320 313 309 306 304 309 313 324 255 266 263 304 13 335 216 227 246 199 206 208 241 223 238 241 228 248 259 266 262 262 266 178 260 229 258 263 244 209 207
347 340 341 338 336 329 317 312 304 300 297 299 298 274 239 246 303 312 319 286 259 213 237 234 245 184 201 286 240 237 268 274 214 229 245 236 258 228 258 228 261 266 261 225 214
347 340 336 334 332 324 318 309 304 302 298 288 251 196 248 251 279 287 203 272 221 232 231 251 220 205 187 256 312 244 222 216 239 201 241 153 261 267 261 242 270 287 291 273 216
341 339 336 335 330 322 321 313 306 311 322 145 126 167 265 287 263 263 184 243 212 213 219 232 197 196 228 192 269 241 248 200 286 231 241 188 274 268 299 317 286 290 292 288 265
349 342 336 335 330 325 326 311 297 300 92 154 145 303 265 298 331 313 208 267 283 258 229 170 185 206 118 162 224 232 239 219 227 228 231 263 266 270 282 263 270 288 304 304 266
337 336 336 339 332 328 337 348 8 345 25 286 279 268 291 297 301 287 350 335 299 181 195 208 178 216 205 213 227 251 249 242 194 241 279 259 274 269 259 284 277 284 290 302 267
338 338 341 341 330 331 11 35 38 290 295 265 263 262 253 255 277 270 223 195 208 212 189 257 240 213 195 221 229 232 246 249 253 252 273 285 281 284 255 247 244 259 281 280 217
346 348 341 339 318 12 325 317 315 329 280 282 251 252 246 192 233 250 185 192 200 224 197 217 219 212 193 211 221 230 233 220 250 261 257 288 282 283 265 235 242 243 247 208 196
345 346 345 343 6 341 325 327 326 323 286 273 236 264 208 181 249 179 204 182 208 222 201 244 232 245 206 229 190 244 183 226 246 221 251 168 282 259 273 273 270 271 259 221 200
337 339 336 346 285 325 298 331 318 222 282 276 250 233 228 194 307 248 92 183 222 192 149 227 175 205 227 228 195 240 201 205 225 220 281 260 274 285 294 284 281 279 272 241 209
330 326 327 354 110 246 332 314 5 242 247 280 274 343 334 258 266 274 170 142 180 208 253 228 136 176 207 200 208 137 260 242 221 188 251 221 209 284 198 235 291 283 268 257 212
324 319 321 267 246 167 355 6 342 229 337 260 343 334 321 328 290 219 193 184 162 153 212 217 235 241 298 24 127 159 118 273 291 172 236 193 220 247 278 271 291 321 314 283 211
330 324 284 244 194 92 39 200 232 271 267 289 318 303 321 2 350 335 273 208 248 180 150 181 253 200 208 206 164 177 166 177 210 200 217 197 232 242 219 300 271 14 9 342 281
335 307 303 268 171 120 115 130 247 301 356 333 314 297 359 338 336 343 4 355 26 359 224 175 255 226 158 213 174 215 185 225 263 359 79 228 282 310 279 245 38 28 8 7 19
337 341 279 308 142 102 206 249 259 251 291 299 305 330 334 331 334 354 328 349 345 0 327 328 279 256 224 124 225 190 169 217 222 215 238 254 241 228 271 267 27 36 14 6 355
51 348 276 152 109 99 222 247 276 287 300 305 315 298 302 322 330 328 331 308 337 358 355 15 4 289 121 193 178 169 218 207 187 163 212 225 251 231 244 222 131 62 27 10 9
341 353 266 354 32 197 248 243 293 298 273 281 255 260 265 311 320 299 323 21 237 292 310 6 40 301 232 131 101 234 229 200 183 218 218 164 251 336 77 83 65 44 28 340 355
30 274 304 113 243 304 280 264 274 286 272 304 284 251 281 295 297 300 317 309 276 168 217 271 39 346 344 356 44 17 332 236 139 120 195 162 238 58 86 70 92 54 74 351 14
97 302 319 210 222 227 301 285 316 305 285 266 281 312 338 293 257 304 327 329 341 87 2 69 67 46 306 290 57 291 336 342 104 105 84 223 160 223 174 148 84 99 103 20 32
148 222 211 278 295 280 284 284 322 349 318 328 328 353 333 300 315 357 334 327 323 169 136 84 55 3 306 298 247 122 317 20 56 128 125 335 326 204 157 156 96 117 115 84 46
147 176 226 285 282 330 313 284 326 330 303 340 340 323 305 265 255 286 289 243 278 332 126 211 95 339 306 324 334 191 200 313 43 149 76 328 280 26 87 97 85 96 113 95 76
221 167 120 260 272 61 249 313 316 315 297 283 309 307 306 279 233 242 231 247 257 356 320 53 114 133 278 327 311 186 108 223 200 172 163 173 287 100 85 86 84 101 111 99 87